This is the latest recevied weather packets stored in our database for station/object DB0OHA-10. If no packets are shown the sender has not sent any weather packets the latest 10 day(s).
| Time | Temp. | Humidity | Pressure | Rain* | Wind** | Luminosity | Snow |
|---|---|---|---|---|---|---|---|
| 1777648518 | 21.67° C | 39% | 1025.1 hPa | 0 mm | - | 457 W/m² | - |
| 1777647617 | 21.11° C | 38% | 1025.2 hPa | 0 mm | - | 494 W/m² | - |
| 1777646718 | 21.11° C | 39% | 1025.3 hPa | 0 mm | - | 526 W/m² | - |
| 1777645818 | 21.67° C | 38% | 1025.6 hPa | 0 mm | - | 555 W/m² | - |
| 1777644918 | 21.11° C | 39% | 1025.9 hPa | 0 mm | - | 585 W/m² | - |
| 1777644018 | 21.11° C | 38% | 1026 hPa | 0 mm | - | 615 W/m² | - |
| 1777643118 | 21.67° C | 38% | 1026.1 hPa | 0 mm | - | 640 W/m² | - |
| 1777642218 | 21.11° C | 36% | 1026.3 hPa | 0 mm | - | 664 W/m² | - |
| 1777641318 | 21.11° C | 37% | 1026.4 hPa | 0 mm | - | 686 W/m² | - |
| 1777640418 | 21.11° C | 39% | 1026.7 hPa | 0 mm | - | 707 W/m² | - |
| 1777639518 | 21.11° C | 39% | 1026.9 hPa | 0 mm | - | 724 W/m² | - |
| 1777638618 | 20.56° C | 39% | 1027.1 hPa | 0 mm | - | 738 W/m² | - |
| 1777637754 | 20.56° C | 41% | 1027.4 hPa | 0 mm | - | 747 W/m² | - |
| 1777637718 | 20.56° C | 41% | 1027.4 hPa | 0 mm | - | 747 W/m² | - |
| 1777636818 | 20° C | 41% | 1027.4 hPa | 0 mm | - | 758 W/m² | - |
| 1777635918 | 20° C | 40% | 1027.5 hPa | 0 mm | - | 763 W/m² | - |
| 1777635018 | 20° C | 44% | 1027.5 hPa | 0 mm | - | 765 W/m² | - |
| 1777634118 | 20° C | 45% | 1027.6 hPa | 0 mm | - | 766 W/m² | - |
| 1777633218 | 19.44° C | 42% | 1027.8 hPa | 0 mm | - | 763 W/m² | - |
| 1777632318 | 19.44° C | 42% | 1027.9 hPa | 0 mm | - | 700 W/m² | - |
| 1777631418 | 18.89° C | 44% | 1028 hPa | 0 mm | - | 592 W/m² | - |
| 1777630518 | 18.89° C | 44% | 1028.2 hPa | 0 mm | - | 624 W/m² | - |
| 1777629618 | 17.78° C | 45% | 1028.3 hPa | 0 mm | - | 714 W/m² | - |
| 1777628718 | 18.33° C | 45% | 1028.3 hPa | 0 mm | - | 708 W/m² | - |
| 1777627818 | 17.78° C | 45% | 1028.4 hPa | 0 mm | - | 694 W/m² | - |
* Rain latest hour (hover to see other rain measurements)
** Current wind speed in m/s (hover to see current wind gust speed)